Temp
13 13 13 12 12 12 12 11 11 10 10 10 10 10 10 10 10 10 10 10 10 10 10 9 9 9 9 9 9 9 9 9 7 7 11 11 10 9 8 7 7 8 9
12 12 12 12 12 12 11 11 10 10 10 10 10 10 10 10 10 10 10 10 10 10 9 9 9 9 9 8 8 7 7 8 6 6 7 8 10 9 9 8 8 8 9
12 12 12 12 12 11 11 11 10 10 10 10 10 10 10 11 10 10 10 10 10 9 9 9 8 8 8 8 7 7 6 6 7 7 6 6 7 7 9 9 10 9 8
11 11 12 12 11 11 11 11 11 10 10 10 10 10 10 10 10 10 10 10 9 9 9 9 8 8 8 7 7 6 6 6 7 7 6 7 7 7 8 9 8 10 9
11 11 12 11 11 11 11 10 10 10 10 10 10 10 10 9 10 10 10 9 9 9 9 8 8 8 8 7 7 7 6 6 6 6 6 6 7 8 7 8 8 8 9
11 11 11 11 10 10 10 10 10 10 10 10 10 9 9 9 9 9 9 9 9 9 8 8 8 8 7 7 7 7 7 6 6 6 6 5 6 6 7 7 8 8 9
11 11 10 10 10 10 10 10 10 10 10 10 9 9 9 9 8 8 8 8 8 8 8 8 7 7 7 7 7 6 6 6 6 6 6 6 6 6 6 7 8 8 8
10 10 10 10 10 10 10 10 10 10 10 9 9 9 8 8 8 7 8 8 8 7 8 8 7 7 7 7 7 6 6 6 6 6 6 6 6 6 6 6 6 7 8
10 10 9 9 9 9 9 10 10 9 9 9 8 8 8 8 8 7 7 7 7 7 7 7 7 7 7 7 6 7 6 6 6 6 6 6 6 6 6 6 5 5 6
10 10 9 9 9 9 9 9 9 9 8 8 8 7 7 7 7 7 7 7 7 7 6 6 6 6 6 6 6 6 6 6 6 6 6 6 6 6 6 5 6 5 5
10 9 9 9 9 9 9 9 9 8 8 7 7 7 7 7 7 6 6 6 6 6 6 6 6 6 6 6 5 5 5 5 6 6 6 6 5 6 5 5 5 5 5
9 9 8 8 8 9 9 9 8 8 7 7 6 6 6 6 6 6 6 6 6 6 5 5 5 5 5 5 5 5 5 5 5 5 5 5 5 5 5 5 4 4 4
8 8 8 8 8 9 9 8 7 7 6 6 6 6 5 5 5 5 5 5 6 5 5 5 5 5 5 5 5 5 5 5 5 5 5 5 5 5 4 4 4 4 4
8 8 8 8 8 8 8 7 6 6 5 5 5 5 5 5 5 5 5 5 5 5 5 5 5 5 5 4 4 4 4 4 4 4 4 4 4 5 4 4 4 4 3
8 8 8 8 7 7 7 7 6 5 5 5 5 5 5 5 5 5 5 5 5 5 5 5 5 5 5 4 4 4 4 4 4 4 3 3 4 4 4 3 3 3 2
8 7 7 7 7 7 7 6 5 5 4 4 4 4 4 4 4 4 5 5 5 5 5 5 5 4 4 4 4 3 4 3 3 3 3 2 3 3 3 3 3 2 3
7 7 7 7 6 6 6 6 5 5 4 4 4 4 4 5 5 5 5 5 5 5 5 4 4 4 4 4 4 3 4 3 3 3 2 2 2 2 2 2 2 2 2
7 7 6 6 6 6 5 4 4 4 4 4 4 4 4 4 4 4 4 4 4 4 4 4 4 4 4 4 4 3 3 3 3 2 2 2 2 1 1 1 1 1 1
7 6 6 6 5 4 3 3 3 3 3 3 3 3 3 4 4 4 4 4 4 4 4 4 4 3 4 3 3 3 3 3 3 2 2 1 1 1 0 0 0 1 1
6 6 5 5 4 3 2 2 2 2 2 3 3 3 3 2 3 3 3 3 3 3 3 3 3 3 3 3 3 2 2 2 2 3 2 1 1 1 0 -0 -0 -0 0
5 4 4 4 3 2 2 2 2 2 2 2 2 2 2 2 2 2 2 2 2 2 2 3 3 3 2 2 2 1 1 1 1 2 1 1 1 0 -1 -1 -1 -1 -1
4 4 3 3 2 2 2 1 1 1 1 1 2 2 2 2 1 1 2 1 1 1 1 2 2 2 2 2 1 1 1 0 -0 0 0 -0 -0 -0 -1 -1 -2 -2 -2
3 2 2 2 1 1 1 0 1 0 0 1 1 1 1 1 1 1 1 1 1 1 1 1 1 1 1 1 1 0 0 0 -0 -0 -1 -1 -2 -2 -2 -2 -2 -3 -3
2 2 1 0 0 1 0 0 1 1 0 0 0 1 0 1 1 1 0 0 0 0 0 -0 -0 -0 -0 0 -0 -0 -0 -0 -0 -1 -1 -2 -2 -2 -3 -3 -3 -3 -4
1 1 0 0 0 0 0 1 1 -0 -1 -1 -0 -0 -0 -0 -0 0 -0 0 0 -0 -1 -0 -1 -1 -1 -1 -1 -1 -2 -1 -2 -4 -3 -3 -3 -3 -3 -4 -4 -4 -3
0 1 0 0 0 0 0 1 0 -0 -1 -1 -1 -1 -1 -1 -1 -1 -0 -0 -0 -1 -1 -1 -2 -2 -2 -2 -2 -2 -2 -2 -2 -4 -4 -3 -4 -3 -3 -3 -3 -3 -4
Height
1517 1520 1522 1524 1525 1525 1526 1526 1525 1523 1521 1519 1517 1515 1514 1512 1510 1507 1505 1503 1501 1499 1496 1494 1492 1490 1487 1484 1482 1478 1476 1473 1469 1463 1458 1456 1453 1449 1445 1440 1439 1438 1440
1518 1519 1521 1522 1524 1524 1524 1524 1523 1521 1520 1517 1515 1514 1512 1510 1508 1506 1503 1501 1499 1497 1495 1492 1490 1487 1485 1484 1481 1478 1474 1473 1470 1466 1461 1456 1453 1450 1447 1444 1441 1438 1439
1520 1521 1521 1522 1522 1523 1523 1523 1522 1520 1518 1515 1514 1513 1510 1508 1506 1504 1502 1499 1498 1496 1493 1490 1487 1485 1483 1481 1479 1477 1475 1471 1470 1468 1466 1461 1457 1452 1448 1447 1444 1441 1441
1521 1521 1521 1521 1522 1522 1522 1521 1520 1518 1516 1514 1513 1510 1508 1505 1504 1501 1499 1497 1495 1493 1490 1488 1486 1483 1481 1479 1477 1476 1474 1472 1469 1466 1465 1463 1460 1457 1452 1450 1447 1446 1445
1521 1521 1521 1521 1521 1521 1521 1520 1519 1517 1515 1513 1511 1508 1506 1504 1501 1498 1496 1494 1492 1489 1487 1485 1482 1481 1479 1477 1475 1474 1472 1470 1469 1467 1464 1462 1460 1458 1457 1453 1451 1450 1449
1520 1521 1521 1521 1521 1521 1520 1519 1518 1516 1514 1511 1509 1506 1504 1501 1498 1496 1493 1491 1488 1486 1484 1481 1479 1477 1476 1474 1472 1471 1470 1468 1467 1466 1465 1463 1461 1458 1457 1454 1453 1451 1450
1521 1522 1521 1521 1521 1520 1519 1518 1516 1514 1511 1509 1507 1504 1501 1498 1494 1491 1488 1486 1484 1482 1480 1477 1475 1473 1471 1470 1468 1467 1466 1465 1464 1463 1462 1461 1460 1458 1457 1454 1452 1451 1450
1520 1520 1520 1520 1520 1519 1518 1516 1514 1512 1509 1506 1503 1501 1497 1494 1491 1487 1484 1482 1479 1478 1475 1473 1471 1469 1467 1465 1464 1463 1462 1461 1460 1459 1458 1458 1457 1457 1456 1454 1453 1450 1448
1519 1520 1520 1520 1519 1518 1516 1514 1512 1509 1506 1503 1500 1497 1494 1491 1487 1484 1481 1478 1476 1473 1471 1469 1466 1465 1463 1461 1459 1457 1457 1456 1456 1455 1454 1453 1453 1452 1452 1451 1451 1451 1448
1518 1518 1518 1518 1517 1516 1515 1513 1510 1507 1503 1501 1497 1494 1490 1487 1484 1481 1478 1474 1472 1469 1466 1464 1462 1460 1458 1456 1454 1452 1452 1450 1450 1449 1449 1448 1448 1447 1447 1446 1446 1445 1446
1516 1516 1517 1516 1516 1515 1513 1510 1507 1504 1501 1498 1494 1491 1488 1484 1481 1478 1474 1471 1468 1465 1462 1459 1457 1455 1453 1451 1448 1447 1446 1445 1444 1444 1442 1442 1442 1441 1441 1440 1440 1440 1439
1515 1515 1515 1515 1514 1513 1511 1508 1505 1501 1498 1495 1492 1488 1485 1481 1478 1475 1471 1468 1464 1461 1458 1455 1452 1450 1447 1445 1443 1441 1440 1439 1438 1438 1437 1436 1436 1435 1435 1434 1434 1435 1434
1513 1513 1514 1513 1513 1511 1508 1505 1502 1499 1496 1493 1489 1486 1482 1479 1475 1472 1468 1465 1461 1458 1455 1451 1448 1445 1442 1440 1438 1435 1434 1433 1432 1432 1431 1431 1429 1429 1428 1428 1428 1427 1427
1510 1510 1511 1511 1510 1508 1505 1503 1499 1496 1493 1490 1487 1484 1481 1477 1474 1471 1467 1463 1459 1455 1451 1448 1444 1441 1437 1435 1432 1430 1429 1427 1426 1425 1425 1425 1424 1423 1422 1422 1422 1422 1422
1507 1508 1508 1508 1506 1504 1502 1499 1496 1493 1490 1487 1484 1481 1479 1476 1473 1469 1465 1461 1457 1453 1449 1446 1442 1438 1434 1431 1427 1425 1423 1421 1420 1419 1419 1418 1418 1417 1416 1416 1416 1415 1415
1503 1505 1505 1504 1503 1501 1499 1496 1492 1489 1486 1483 1481 1478 1476 1473 1469 1466 1463 1459 1455 1452 1448 1443 1439 1435 1431 1427 1424 1421 1419 1417 1415 1413 1413 1412 1411 1411 1411 1410 1409 1410 1408
1498 1500 1500 1500 1498 1496 1493 1492 1489 1485 1483 1480 1477 1475 1472 1469 1465 1462 1459 1455 1452 1448 1445 1441 1437 1433 1429 1425 1421 1418 1414 1412 1410 1408 1407 1406 1405 1405 1405 1404 1403 1402 1401
1496 1496 1496 1496 1495 1493 1491 1488 1485 1482 1479 1476 1474 1471 1468 1465 1462 1458 1455 1451 1448 1444 1441 1437 1434 1430 1426 1422 1418 1415 1411 1407 1405 1403 1401 1399 1399 1399 1398 1398 1397 1396 1396
1492 1492 1491 1490 1489 1487 1484 1482 1480 1478 1475 1473 1470 1467 1464 1461 1457 1454 1451 1447 1444 1440 1437 1433 1429 1426 1422 1418 1414 1410 1407 1403 1400 1398 1395 1393 1392 1392 1392 1391 1390 1389 1389
1489 1489 1488 1486 1483 1481 1479 1477 1476 1473 1470 1468 1465 1462 1459 1456 1452 1449 1446 1443 1439 1436 1432 1429 1426 1422 1418 1415 1410 1406 1402 1398 1395 1393 1390 1388 1385 1384 1385 1383 1383 1381 1382
1486 1484 1482 1480 1478 1476 1474 1472 1470 1468 1465 1462 1459 1457 1454 1451 1448 1445 1441 1437 1434 1430 1427 1423 1420 1417 1413 1409 1405 1401 1397 1393 1389 1385 1383 1382 1380 1378 1376 1375 1374 1375 1378
1481 1479 1476 1474 1474 1472 1470 1467 1465 1463 1460 1457 1454 1451 1448 1445 1442 1438 1435 1432 1428 1424 1420 1416 1412 1410 1407 1403 1400 1396 1393 1388 1384 1380 1376 1373 1372 1371 1369 1368 1367 1366 1369
1475 1473 1470 1469 1469 1468 1465 1462 1460 1458 1455 1452 1449 1445 1442 1439 1436 1431 1428 1424 1421 1416 1412 1408 1403 1400 1398 1395 1391 1387 1385 1382 1377 1374 1371 1366 1363 1362 1361 1360 1362 1360 1360
1470 1468 1466 1465 1463 1462 1460 1457 1455 1452 1448 1445 1442 1438 1434 1431 1427 1423 1420 1416 1412 1408 1404 1400 1396 1391 1388 1387 1383 1378 1374 1371 1367 1364 1362 1359 1357 1354 1353 1353 1353 1353 1352
1466 1464 1462 1460 1457 1455 1453 1451 1448 1443 1439 1435 1431 1428 1425 1421 1417 1413 1410 1406 1403 1400 1395 1392 1388 1384 1380 1378 1375 1371 1367 1363 1359 1356 1352 1348 1348 1346 1344 1343 1344 1344 1343
1461 1459 1457 1454 1451 1448 1445 1443 1439 1435 1431 1426 1422 1419 1414 1410 1406 1402 1398 1398 1393 1391 1387 1384 1380 1377 1373 1370 1367 1364 1360 1356 1353 1348 1344 1340 1337 1336 1335 1333 1332 1333 1333
Wind_Speed
6 9 7 3 2 2 5 10 13 14 15 15 14 12 11 11 12 14 15 16 16 17 16 16 16 16 17 18 19 20 19 20 22 26 22 12 13 26 21 16 11 16 15
11 8 5 2 2 3 6 11 12 13 13 13 13 13 13 13 13 14 15 17 17 17 16 16 16 16 16 15 16 18 21 19 18 21 20 15 14 25 21 16 13 5 7
7 6 5 3 2 4 9 10 11 11 11 11 11 12 12 13 13 14 14 15 17 17 17 16 16 15 15 15 15 16 16 19 17 15 15 8 8 24 17 21 14 7 2
6 5 4 2 4 6 7 8 8 8 9 11 11 12 13 15 15 16 16 16 17 18 18 18 17 16 15 14 14 13 14 15 16 15 14 15 13 10 12 17 15 7 5
5 4 2 3 5 5 6 6 7 8 10 11 13 14 14 16 17 18 19 19 18 18 18 18 18 17 16 15 15 13 12 13 14 14 16 14 11 6 8 11 13 11 9
5 7 9 9 7 5 5 7 9 12 13 14 15 16 18 19 21 20 21 20 19 18 17 18 18 18 17 17 16 15 13 13 13 12 11 12 12 13 8 7 9 5 6
9 9 9 6 4 5 8 11 13 15 16 16 16 18 20 22 24 23 23 23 22 19 17 18 18 18 18 18 18 17 15 15 14 14 13 11 11 12 12 9 8 6 7
9 8 6 4 5 8 11 14 16 18 19 19 19 19 20 21 22 22 23 22 22 21 20 19 19 18 18 19 19 20 18 17 16 15 15 15 14 13 13 13 11 10 8
8 8 5 2 5 10 15 18 20 21 21 22 21 20 20 20 21 21 22 22 22 22 21 21 21 20 19 20 20 21 20 20 19 18 18 18 17 17 16 15 13 11 7
10 9 6 1 6 12 17 20 22 23 23 22 21 22 22 22 22 22 23 23 21 21 21 22 22 22 21 21 21 21 21 21 20 20 20 20 19 19 19 18 17 16 16
11 10 6 3 9 14 19 23 23 23 23 23 22 22 21 21 21 21 21 21 20 20 20 21 22 22 22 22 23 22 22 22 21 20 20 20 20 19 19 19 19 19 19
8 7 4 6 11 16 21 23 23 24 23 22 21 21 20 20 20 20 20 20 21 20 21 22 23 23 22 22 23 23 22 23 22 21 21 21 20 20 19 19 19 19 19
7 5 4 8 12 18 21 23 23 23 22 21 20 18 17 17 19 20 20 20 20 20 20 21 21 22 22 22 22 23 23 23 24 23 23 22 22 22 20 20 19 19 19
7 6 5 8 14 18 20 22 21 20 19 17 16 16 16 18 19 19 20 20 21 21 21 21 21 22 22 22 22 22 23 24 24 24 25 24 23 23 22 22 21 20 20
8 6 5 10 15 18 20 21 20 19 17 16 15 15 17 18 18 18 19 20 20 21 21 22 22 22 22 22 21 21 22 23 25 26 26 25 24 23 23 23 21 21 21
11 7 6 11 16 18 19 20 20 19 18 18 17 17 18 18 18 19 20 20 21 21 22 23 24 24 24 23 22 21 22 22 25 27 26 25 25 24 23 23 23 22 22
12 7 7 12 17 20 21 21 19 19 19 19 19 19 19 20 21 21 21 22 23 23 23 24 24 24 24 25 24 22 22 23 23 25 26 26 25 25 25 24 24 25 24
10 8 10 15 19 20 20 18 17 17 18 18 18 17 18 19 21 22 23 23 24 25 26 26 25 25 24 25 25 25 24 24 23 23 24 25 26 25 24 25 26 26 26
9 11 14 18 21 20 18 17 15 15 16 17 18 20 21 22 23 24 25 25 25 25 26 26 26 26 25 25 25 26 26 26 26 24 23 23 25 24 24 26 28 27 28
13 15 16 19 20 16 17 17 17 18 19 20 21 23 24 24 24 24 24 24 24 25 26 27 27 27 26 25 25 25 26 28 27 26 25 24 24 23 24 28 29 30 29
15 15 19 20 18 17 17 18 20 20 22 23 24 25 25 25 24 24 24 25 26 27 28 29 29 30 29 28 26 26 27 28 29 30 28 25 23 24 25 25 29 31 27
16 18 20 20 15 17 20 20 23 23 22 23 23 24 24 25 26 27 28 27 28 29 30 32 33 32 31 31 30 27 27 27 29 30 30 28 24 24 24 25 26 27 27
17 20 20 18 16 16 19 22 21 20 22 24 24 25 26 27 28 29 30 31 30 31 32 32 33 34 33 34 33 32 29 28 28 29 30 30 29 26 25 25 25 25 27
19 18 17 17 18 18 20 24 25 26 27 28 28 28 29 30 32 32 32 31 32 32 33 34 34 34 34 33 32 33 35 36 33 30 31 29 29 29 27 26 25 26 27
16 17 19 22 23 23 25 26 28 29 29 30 31 31 32 33 35 35 35 35 35 33 33 34 33 33 35 32 31 31 33 34 33 30 32 35 33 30 30 29 30 28 29
19 21 22 25 27 29 30 31 33 34 34 36 36 35 35 37 37 38 40 37 38 36 35 34 33 33 33 33 32 31 32 31 29 29 32 33 34 31 31 32 31 29 29
Wind_Direction
144 148 167 204 231 339 354 340 331 325 322 322 325 328 325 327 331 335 336 339 341 339 335 333 331 329 334 342 346 343 347 1 358 353 1 14 0 5 359 347 310 267 239
128 135 147 144 86 12 336 330 328 331 328 327 331 333 335 341 338 334 333 334 335 331 329 331 331 330 330 334 339 340 340 359 7 359 357 346 357 5 17 6 346 321 228
113 119 122 108 59 337 326 323 325 331 334 339 342 341 340 342 337 334 331 326 321 321 322 326 327 326 326 328 333 337 340 345 3 9 0 340 326 349 11 15 10 14 68
123 122 113 71 338 333 337 339 339 339 341 339 335 333 335 331 329 328 326 324 319 318 316 315 315 318 322 323 322 322 329 333 344 355 359 350 330 342 341 9 21 34 5
128 111 57 60 72 57 41 29 11 355 347 340 335 332 330 327 328 330 325 321 317 314 310 308 307 309 312 312 312 313 313 318 327 339 347 353 352 1 340 341 359 38 41
130 111 103 103 94 61 26 2 351 344 340 333 323 321 320 320 319 318 312 312 314 310 307 303 303 303 301 301 303 304 305 305 311 318 325 337 341 329 332 325 336 347 358
139 129 128 120 77 21 0 348 343 342 341 335 326 320 317 316 316 316 313 310 309 308 305 302 300 299 297 295 295 296 296 294 297 301 305 312 317 317 323 320 310 309 308
151 140 129 99 37 6 357 351 346 342 339 335 330 326 321 318 318 317 318 314 307 307 304 300 299 300 296 292 290 289 291 290 291 292 294 297 300 301 305 308 309 302 275
168 168 153 97 22 7 360 351 344 340 336 334 333 330 327 324 323 321 319 315 311 306 305 302 297 298 298 296 290 288 288 286 286 287 287 289 291 292 290 290 289 281 281
193 192 188 241 352 354 352 346 341 338 335 333 331 332 330 327 324 323 322 321 319 312 308 305 300 296 295 296 293 289 287 285 284 284 285 286 286 285 284 282 278 272 266
194 194 199 311 336 344 343 341 339 337 336 335 335 333 331 330 329 328 326 323 322 317 313 310 306 303 298 294 293 292 287 286 285 285 285 284 285 282 279 276 274 270 266
196 196 234 304 329 337 336 336 335 334 334 334 334 334 334 333 333 334 335 332 328 325 319 314 309 306 302 299 294 289 287 284 284 286 284 285 285 282 281 279 276 275 271
203 211 273 310 326 332 335 336 336 335 335 334 336 339 343 346 348 348 347 345 340 335 330 326 323 318 310 302 297 292 286 283 281 281 282 283 283 283 283 280 277 274 271
220 240 288 320 334 339 337 337 337 336 336 337 340 341 344 348 349 349 348 348 349 346 344 340 334 329 323 315 305 297 290 283 280 278 280 281 282 282 281 278 277 275 272
223 240 282 324 337 337 335 335 332 331 333 333 332 332 334 335 335 337 343 348 351 352 350 348 346 340 335 330 319 306 296 288 283 280 279 278 278 278 278 278 277 274 272
224 231 292 328 334 331 330 329 327 326 328 327 324 325 325 326 328 330 333 335 338 340 343 348 348 348 348 340 332 320 309 298 288 285 283 279 275 274 275 273 274 273 271
214 239 305 326 330 329 327 319 315 318 317 316 317 319 322 325 329 330 331 331 334 337 338 340 340 341 345 343 341 332 321 311 302 293 287 283 276 274 274 272 270 270 268
226 277 310 320 323 318 311 307 307 308 310 314 319 323 325 328 332 333 334 334 334 336 337 337 337 335 337 335 336 335 330 319 311 303 295 287 281 274 273 272 268 267 268
255 291 305 313 316 312 309 308 306 307 311 314 317 320 323 324 326 326 328 330 330 331 331 334 335 336 337 334 331 330 329 326 322 312 302 294 285 277 271 271 270 269 266
272 288 299 306 310 304 301 298 300 305 311 314 316 318 319 321 323 324 324 325 326 326 327 327 329 332 332 332 330 326 322 320 319 318 313 302 293 283 272 268 270 268 267
279 291 306 310 309 297 297 297 298 304 307 309 309 311 315 319 321 319 320 320 320 320 322 322 323 324 327 329 329 326 319 316 313 312 315 313 302 287 277 269 267 270 275
286 305 312 314 302 295 296 298 300 303 302 306 307 307 309 312 315 315 317 317 317 317 319 319 319 321 322 323 324 324 320 314 307 306 307 308 304 294 280 268 267 271 267
306 313 312 307 300 297 297 302 309 307 305 308 309 307 306 305 307 309 312 313 314 314 314 315 316 318 319 320 322 319 315 310 305 302 300 302 303 297 284 270 270 268 258
310 308 308 307 311 308 303 305 309 309 305 305 304 304 302 303 304 305 307 308 309 309 308 309 311 313 315 318 317 313 312 311 309 306 304 296 297 299 290 273 268 269 256
305 308 311 314 312 309 307 307 307 311 310 307 306 304 304 304 304 306 308 307 307 306 304 304 305 309 311 315 314 316 313 309 306 306 296 294 298 295 293 278 273 271 264
308 311 312 310 309 308 308 307 310 314 314 311 308 306 304 303 305 308 308 306 305 305 302 299 300 303 305 308 310 312 314 313 307 302 295 288 289 292 290 288 282 275 265